Regional Weather Roundup
Issued by NWS

Home | Current Version | Previous Version | Graphics & Text | Print | Product List | Glossary On
Versions: 1 2 3 4 5 6 7 8 9 10 11 12 13 14 15 16 17 18 19 20 21 22 23 24 25 26 27 28 29 30 31 32 33 34 35 36 37 38 39 40 41 42 43 44 45 46 47 48 49 50
000
ASUS43 KOAX 270802
RWRNE

WEATHER ROUNDUP FOR NEBRASKA
NATIONAL WEATHER SERVICE OMAHA NE
300 AM CDT WED AUG 27 2014

NOTES: SATELLITE DATA IS BEING USED TO AUGMENT CLOUD COVER ABOVE
       12000 FEET.
       "FAIR" INDICATES FEW OR NO CLOUDS BELOW 12,000 FEET WITH NO
       SIGNIFICANT WEATHER AND/OR OBSTRUCTIONS TO VISIBILITY.

  * THESE STATIONS DO NOT REPORT WEATHER SUCH AS RAIN...SNOW OR FOG.

NEZ001>004-019>022-054>056-270900-
NEBRASKA PANHANDLE

CITY           SKY/WX    TMP DP  RH WIND       PRES   REMARKS
SCOTTSBLUFF    PTCLDY    63  62  97 E5        30.14F
ALLIANCE       MOCLDY    63  60  90 E3        30.16R
CHADRON        MOCLDY    62  59  90 CALM      30.14S
KIMBALL        MOCLDY    61  60  97 SE5       30.16F
SIDNEY         MOCLDY    65  59  81 SE13      30.16F
$$

NEZ057>060-069>072-079>082-270900-
SOUTHWEST NEBRASKA

CITY           SKY/WX    TMP DP  RH WIND       PRES   REMARKS
NORTH PLATTE   TSTM      69  66  90 S17       30.15R FOG
IMPERIAL       CLOUDY    67  61  81 E6        30.12F
LEXINGTON      TSTM      70  69  95 S3        30.14R
MCCOOK         CLOUDY    67  65  93 NE5       30.13F
OGALLALA       MOCLDY    66  64  94 CALM      30.14F
$$

NEZ005>010-023>029-035>040-094-270900-
NORTH CENTRAL NEBRASKA

CITY           SKY/WX    TMP DP  RH WIND       PRES   REMARKS
VALENTINE      CLOUDY    67  66  97 SE6       30.12F
AINSWORTH      CLOUDY    66  66  98 SE7       30.14S FOG
BROKEN BOW     CLOUDY    69  67  93 SE9       30.12F FOG
O`NEILL        CLOUDY    67  65  95 SE6       30.14S
ORD            CLOUDY    67  65  93 SE7       30.11F
THEDFORD       CLOUDY    68  67  96 SE7       30.15R
$$

NEZ041-046>049-061>064-073>077-083>087-270900-
SOUTH CENTRAL NEBRASKA

CITY           SKY/WX    TMP DP  RH WIND       PRES   REMARKS
GRAND ISLAND   MOCLDY    69  66  90 SE9       30.11F
AURORA         MOCLDY    67  67 100 SE6       30.11S
HASTINGS       CLOUDY    69  65  86 E8        30.10F
HEBRON         PTCLDY    69  65  88 E3        30.09F
HOLDREGE       CLOUDY    69  68  94 CALM      30.12S THUNDER FOG
KEARNEY *      CLOUDY    68  66  94 E8        30.11F
YORK           PTCLDY    66 N/A N/A SE8       30.11F
$$

NEZ011>018-030>034-042>045-270900-
NORTHEAST NEBRASKA

CITY           SKY/WX    TMP DP  RH WIND       PRES   REMARKS
NORFOLK        MOCLDY    65  62  90 CALM      30.13S
ALBION         MOCLDY    65  63  90 E3        30.12F
BLAIR          MOCLDY    68  66  91 NE6       30.11F
FREMONT        CLEAR     68  66  91 CALM      30.12F
TEKAMAH        MOCLDY    66  64  93 N5        30.12F
WAYNE          CLOUDY    64  62  96 CALM      30.14S
$$

NEZ050>053-065>068-078-088>093-270900-
SOUTHEAST NEBRASKA

CITY           SKY/WX    TMP DP  RH WIND       PRES   REMARKS
LINCOLN        PTCLDY    69  66  90 NE3       30.10F
OMAHA EPPLEY   PTCLDY    70  64  81 E3        30.11F
BEATRICE       MOCLDY    69  68  98 NE5       30.09F
FALLS CITY     MOCLDY    72  70  93 E3        30.07F
NEBRASKA CITY  TSTM      69  69 100 E10       30.09F
PLATTSMOUTH    PTCLDY    68  65  92 E5        30.11F
$$

NEZ044-045-051>053-067-270900-
OMAHA AREA

CITY           SKY/WX    TMP DP  RH WIND       PRES   REMARKS
OMAHA EPPLEY   PTCLDY    70  64  81 E3        30.11F
BLAIR          MOCLDY    68  66  91 NE6       30.11F
FREMONT        CLEAR     68  66  91 CALM      30.12F
MILLARD        CLEAR     70  66  85 CALM      30.10F
OFFUTT AFB     CLEAR     68  68  99 E5        30.10F
PLATTSMOUTH    PTCLDY    68  65  92 E5        30.11F
WAHOO          FAIR      66  64  92 N3        30.11F
$$


USA.gov is the U.S. government's official web portal to all federal, state and local government web resources and services.